Theta_e
344 344 342 338 338 339 338 337 338 340 341 343 342 339 342 346 346 346 346 352 352 355 348 351 355 354 358 353 350 351 354 355 358 357 356 356 356 355 355 357 356 356 356
346 342 340 339 343 342 340 338 337 338 341 341 338 342 339 341 344 345 345 346 353 357 353 354 355 357 357 354 350 349 348 352 352 351 351 352 353 353 354 354 357 356 356
347 341 343 342 343 348 343 342 342 343 342 343 343 344 344 344 344 344 346 347 350 359 356 355 356 356 353 350 340 338 348 346 344 345 346 344 346 348 350 353 353 355 355
350 345 347 349 351 349 347 346 346 344 342 341 342 344 345 343 343 342 343 339 338 344 347 349 353 352 349 344 340 345 344 337 339 341 342 344 343 345 347 349 353 352 353
351 348 348 349 353 346 339 339 340 344 340 343 345 345 343 341 341 342 338 340 339 336 340 347 349 350 348 348 343 345 343 340 340 338 337 343 342 344 346 349 351 352 351
351 349 347 349 351 340 332 335 334 337 341 342 347 342 340 339 340 339 337 339 336 339 342 341 340 344 348 348 348 345 343 340 339 339 340 342 344 345 346 347 349 349 351
351 348 348 351 352 346 342 338 336 334 341 344 340 339 337 340 336 339 340 337 336 340 341 338 336 336 339 348 347 344 343 342 343 343 343 346 346 342 346 344 347 348 350
349 347 347 345 349 348 345 342 340 339 341 345 338 333 329 332 339 342 339 339 335 342 338 335 331 330 328 329 334 340 341 343 343 343 342 344 347 346 346 344 346 346 346
349 348 346 346 347 349 347 347 344 340 340 343 342 336 330 329 333 340 335 334 336 334 333 329 328 326 326 324 328 330 334 334 337 339 341 341 343 345 346 345 346 344 344
347 348 346 345 347 347 348 348 353 347 342 339 340 342 337 335 327 327 330 329 332 333 331 330 326 325 324 324 330 331 331 330 333 337 338 340 339 341 342 343 342 343 344
347 349 347 346 343 347 349 348 348 347 345 341 337 336 335 333 329 323 318 319 319 324 328 320 317 319 322 323 323 326 328 329 329 331 332 335 337 337 338 340 340 339 338
344 346 351 345 346 347 351 348 348 346 343 342 339 334 332 327 325 322 319 314 310 314 316 315 315 314 317 321 327 328 328 327 325 325 325 326 328 332 336 337 338 337 338
342 347 347 344 348 350 348 351 347 346 345 341 336 333 332 330 329 326 321 319 309 312 312 314 313 311 314 319 323 328 327 324 324 323 323 324 324 325 328 330 332 337 338
347 347 347 348 349 352 352 350 349 345 343 340 334 327 318 319 318 319 319 314 312 314 309 308 312 311 311 313 323 329 321 324 322 321 321 322 324 323 323 327 330 333 333
349 349 349 351 353 353 354 350 347 343 340 331 324 317 313 312 311 309 309 307 312 302 303 308 309 310 310 311 323 319 321 322 320 320 319 319 319 322 324 324 326 327 328
351 352 351 352 353 354 354 350 345 345 336 329 321 315 312 310 311 311 311 309 307 304 302 306 307 309 312 320 323 316 320 319 319 320 318 317 317 318 320 321 321 321 322
353 352 350 352 353 354 353 349 345 340 330 321 318 315 314 312 309 309 310 310 309 306 305 306 308 310 310 312 313 313 317 314 317 318 317 317 316 316 317 317 318 318 318
350 353 352 352 353 354 352 349 349 338 325 319 316 316 316 315 308 306 306 305 306 307 306 303 304 306 308 310 311 309 315 315 315 317 316 316 316 315 315 315 315 315 316
350 351 352 352 353 353 351 352 347 338 324 319 317 316 313 309 305 303 302 303 303 306 304 303 301 303 305 308 308 310 311 313 314 318 317 317 316 315 315 315 315 314 314
353 352 352 353 354 354 352 348 341 329 323 320 317 315 312 306 304 302 302 302 303 304 303 302 301 301 302 305 306 306 307 311 310 312 315 315 314 316 316 316 315 314 313
355 354 354 353 353 354 351 342 332 325 316 313 314 313 309 309 312 308 304 302 304 304 303 302 301 300 301 302 302 304 304 311 308 311 311 312 311 311 312 314 315 317 316
354 354 354 354 353 357 334 332 328 318 314 312 312 311 311 316 316 317 317 316 311 305 303 301 300 299 300 300 302 302 302 306 306 312 311 309 311 311 312 313 315 317 318
353 352 353 353 352 350 329 326 326 317 310 309 306 304 308 314 312 311 318 318 319 318 313 303 302 307 305 304 305 302 303 302 306 309 310 307 311 309 312 313 315 314 315
353 350 353 352 349 340 324 322 322 313 308 307 305 305 306 305 307 306 306 306 304 307 308 310 306 307 309 309 304 303 307 304 309 311 311 306 310 308 311 312 313 313 314
351 350 353 350 343 332 319 317 317 311 308 308 309 308 306 305 313 313 305 302 301 304 313 314 316 315 314 314 311 305 304 306 305 307 310 308 308 308 309 310 311 316 314
352 352 352 349 336 332 316 315 316 312 309 310 309 311 317 310 313 312 307 307 305 303 303 303 308 308 309 309 312 305 304 305 306 305 309 306 306 307 305 310 309 311 313
Wind_Speed
4 3 2 3 4 5 4 4 4 5 7 7 7 6 7 7 7 4 3 12 5 6 16 18 17 18 17 15 14 17 23 24 23 22 22 22 20 21 20 20 19 18 17
3 3 3 4 5 4 3 3 4 5 6 6 7 6 6 5 6 5 4 5 8 18 21 19 22 21 14 12 9 12 19 26 23 15 16 19 16 17 20 20 19 19 17
6 5 3 4 5 3 2 4 5 4 5 5 6 6 3 3 1 2 3 2 5 14 16 18 22 17 14 8 6 8 8 8 17 7 3 5 6 15 16 18 20 19 18
7 5 5 5 3 1 1 3 3 4 4 4 4 3 3 2 3 5 4 3 5 4 8 14 11 8 8 1 3 9 13 0 1 11 14 9 9 11 17 17 16 17 16
6 4 4 3 3 2 2 3 2 2 4 4 5 4 4 3 4 4 4 6 7 5 4 8 4 1 3 6 11 6 7 7 13 6 9 5 7 13 18 15 12 11 13
4 2 1 3 4 2 1 1 3 3 4 4 4 2 3 3 2 3 5 4 3 3 4 6 6 7 15 14 16 12 9 9 10 10 10 4 12 15 15 14 12 11 12
4 4 2 2 3 4 3 4 3 3 3 2 3 2 1 4 3 3 3 3 5 5 6 7 6 5 6 15 11 7 6 7 10 13 10 13 11 9 15 7 9 11 12
4 4 4 4 4 2 4 3 3 2 3 1 1 2 4 3 4 5 4 4 5 5 7 7 6 7 7 5 10 15 14 13 8 8 6 4 2 8 10 10 9 9 11
5 6 4 3 3 2 3 3 2 3 2 2 1 1 1 2 1 3 6 4 4 6 5 5 6 6 6 5 7 9 13 11 11 10 9 8 5 3 6 9 12 13 13
5 4 3 4 3 2 3 3 2 3 2 1 1 1 3 1 1 3 4 4 5 4 5 4 4 3 5 4 8 11 13 13 12 11 11 11 9 4 8 11 13 13 13
4 5 6 5 3 2 3 2 3 2 1 0 0 1 1 3 3 3 1 1 5 4 2 3 3 2 4 4 3 6 10 12 13 12 12 13 14 7 5 11 12 12 11
2 3 5 1 2 2 1 1 2 3 3 4 3 3 2 2 0 2 3 2 3 3 3 3 4 3 2 1 3 7 9 10 12 12 12 11 10 10 9 1 11 11 11
2 4 3 2 1 0 3 2 4 5 4 4 3 2 2 1 1 2 3 2 3 2 1 2 3 3 3 3 2 5 8 8 9 10 11 10 9 8 7 7 6 9 13
2 4 2 3 3 3 3 4 3 4 5 4 6 6 3 4 3 2 2 4 1 1 2 1 2 2 3 3 4 6 4 7 8 9 9 10 10 8 5 6 8 7 3
2 4 1 4 3 3 2 4 4 4 5 5 5 6 4 3 4 4 3 2 4 2 1 2 2 2 3 3 2 4 4 5 5 7 8 8 7 9 8 7 8 10 15
1 1 1 1 1 2 4 5 4 5 6 4 3 6 4 3 4 3 3 3 3 4 2 1 1 2 4 2 4 2 3 4 5 6 6 6 5 5 6 7 6 9 9
3 3 2 2 1 3 4 5 5 6 7 6 5 6 6 4 4 4 4 4 3 3 3 2 1 2 2 2 2 2 2 2 2 4 5 6 5 4 6 5 6 3 4
4 4 2 3 2 2 5 6 6 6 7 6 6 7 5 3 7 6 5 6 5 5 3 1 2 3 4 1 2 2 3 2 1 1 2 4 4 3 3 3 4 2 4
6 5 4 4 3 2 5 5 7 7 6 6 6 7 5 6 6 4 5 5 5 4 4 3 2 2 2 2 2 2 3 3 2 4 3 5 4 3 0 2 1 2 3
6 5 4 4 3 4 5 6 8 8 7 6 6 6 6 7 7 6 6 6 4 5 4 4 3 2 1 3 2 2 3 1 2 2 3 5 2 3 7 2 4 4 5
6 5 4 4 3 5 5 8 8 9 8 7 6 6 6 9 11 9 5 4 5 5 4 4 3 3 3 3 3 2 2 1 2 2 1 2 1 1 2 3 3 6 8
6 4 5 4 4 4 12 13 11 9 8 8 7 6 6 11 10 12 12 11 8 5 4 2 2 3 4 2 3 3 2 1 2 1 1 2 1 1 1 1 3 7 8
5 6 5 4 4 5 14 15 14 9 8 7 7 7 6 4 8 6 9 10 10 12 8 2 4 4 5 4 4 4 4 3 1 3 0 1 1 1 1 2 3 2 7
7 5 5 5 4 4 15 14 15 10 8 6 7 7 8 7 5 6 5 5 4 4 3 3 5 4 4 5 2 2 2 1 2 3 4 2 2 2 2 2 6 5 8
5 5 4 5 6 7 15 17 12 9 8 7 6 7 7 7 8 9 6 4 2 1 1 7 11 11 12 14 12 4 5 3 2 2 6 2 3 2 2 5 6 4 16
5 5 5 6 9 10 13 14 13 8 8 6 4 5 10 8 10 9 6 5 3 4 2 3 4 6 7 9 15 8 4 5 2 2 5 3 4 2 3 6 9 8 9
Wind_Direction
242 280 236 151 231 252 268 291 302 314 309 304 300 281 278 284 288 287 270 273 237 191 243 251 273 276 252 241 268 274 277 254 235 224 223 223 219 215 210 205 205 199 200
259 247 270 276 260 238 267 276 279 300 296 296 289 280 295 288 296 272 282 287 251 211 226 239 257 259 262 258 216 230 287 290 257 241 262 242 236 225 215 209 205 201 197
240 217 238 259 269 272 291 289 281 276 276 315 306 299 252 237 274 47 23 25 284 218 224 250 254 285 270 213 190 268 34 19 22 58 159 101 6 275 243 223 210 203 198
225 216 240 248 282 214 209 262 294 296 303 288 267 304 347 125 45 31 28 352 12 12 2 313 312 279 261 243 273 140 97 35 205 231 256 231 182 273 252 228 215 206 197
219 226 235 261 163 117 39 360 325 265 281 306 322 9 11 56 36 15 341 20 22 28 315 327 4 49 281 238 211 205 171 179 227 192 243 224 182 233 244 221 206 197 194
249 190 244 225 172 154 263 321 276 292 273 292 303 49 54 52 49 46 16 30 35 15 25 28 28 38 63 75 115 127 187 212 251 252 227 235 248 250 231 206 193 190 182
271 181 183 171 214 213 224 216 241 250 291 296 312 11 54 39 83 84 103 62 29 37 50 39 33 22 41 69 74 85 149 192 213 235 252 253 235 195 244 222 191 171 159
238 210 193 202 201 233 253 263 265 308 273 293 350 45 360 353 7 28 24 38 48 65 59 50 43 42 36 27 62 56 43 40 33 18 15 338 238 194 197 190 177 163 154
237 233 219 230 234 239 261 265 280 238 279 315 21 128 168 288 36 48 22 39 50 78 76 60 40 37 40 40 37 44 54 43 33 36 27 26 27 104 151 157 138 135 130
288 292 287 244 235 227 244 261 259 243 210 330 26 346 54 356 312 108 11 13 30 59 91 76 72 62 46 32 38 37 36 43 39 36 43 41 41 97 136 147 146 138 134
283 292 284 263 236 218 245 269 300 331 360 154 346 186 92 62 43 105 135 8 26 13 36 100 101 74 50 55 31 42 38 36 45 47 38 33 35 26 162 160 156 151 138
334 333 330 295 193 227 37 341 334 64 85 93 62 28 83 107 297 101 104 84 119 335 1 25 49 38 8 354 86 72 55 44 37 41 47 42 37 37 34 303 194 189 183
330 317 335 63 169 168 58 45 66 66 75 85 95 71 62 79 163 128 105 143 136 240 306 27 21 10 21 335 1 77 68 62 48 33 29 33 35 34 32 24 358 254 205
260 287 352 105 69 50 49 92 80 72 75 74 70 62 65 30 30 35 127 139 134 112 341 308 314 348 341 316 259 107 70 67 54 44 34 25 29 30 40 57 18 38 85
250 269 58 72 40 42 79 98 88 91 84 83 80 80 71 36 51 54 69 135 143 142 350 322 322 347 351 328 163 109 101 81 64 72 64 54 38 29 51 71 62 63 78
263 7 70 37 347 84 90 102 104 92 88 72 81 83 60 35 48 41 54 69 87 133 116 236 340 346 347 54 116 111 126 65 53 77 77 74 68 52 50 62 91 77 69
250 247 240 266 313 85 105 121 122 111 104 101 80 90 69 52 46 39 39 37 43 67 104 315 316 320 44 74 40 349 97 84 37 62 47 46 56 69 57 43 39 81 81
246 251 249 269 279 106 146 147 129 121 120 111 106 90 80 63 48 38 49 50 56 39 101 143 333 335 21 346 230 221 220 156 160 120 129 75 54 62 67 10 7 36 86
236 238 235 242 253 167 145 135 124 113 114 113 115 105 106 85 64 47 51 58 44 43 49 75 336 333 298 327 329 269 225 181 176 220 168 107 76 65 64 213 189 338 148
238 226 236 239 234 178 139 125 118 111 102 94 101 101 101 97 108 90 71 63 48 47 31 49 22 332 333 320 324 333 320 207 160 29 179 134 128 41 17 337 203 206 197
233 221 233 237 171 157 145 133 125 119 114 99 92 91 99 107 113 112 109 78 58 49 31 33 32 347 357 345 333 309 278 268 88 41 351 171 175 307 332 332 252 241 207
228 204 222 227 171 170 140 134 132 125 121 116 112 90 90 96 96 104 101 94 78 65 40 42 10 8 332 289 303 315 294 27 51 34 9 66 154 215 27 350 253 258 252
210 205 213 209 196 154 148 139 131 124 126 127 129 127 111 92 99 92 75 71 65 63 68 132 63 24 347 313 319 332 17 65 70 331 177 123 41 76 333 317 342 187 244
207 182 203 204 146 139 139 132 122 125 126 136 142 142 133 138 135 116 100 80 69 82 71 68 56 27 11 333 328 260 260 223 272 28 9 80 6 10 312 335 341 278 220
185 169 171 164 136 134 139 136 128 132 137 147 159 155 150 153 164 141 123 116 94 278 287 28 53 44 42 32 33 354 15 27 3 1 16 2 8 323 316 6 348 62 151
186 150 161 163 144 145 160 145 138 142 143 154 166 176 181 177 167 158 151 161 174 232 156 24 15 11 31 27 32 36 3 30 358 356 5 25 352 337 14 17 30 54 100